Regional Weather Roundup
Issued by NWS

Home | Current Version | Previous Version | Graphics & Text | Print | Product List | Glossary On
Versions: 1 2 3 4 5 6 7 8 9 10 11 12 13 14 15 16 17 18 19 20 21 22 23 24 25 26 27 28 29 30 31 32 33 34 35 36 37 38 39 40 41 42 43 44 45 46 47 48 49 50
000
ASUS43 KOAX 200102
RWRNE

WEATHER ROUNDUP FOR NEBRASKA
NATIONAL WEATHER SERVICE OMAHA NE
700 PM CST FRI DEC 19 2014

NOTES: SATELLITE DATA IS BEING USED TO AUGMENT CLOUD COVER ABOVE
       12000 FEET.
       "FAIR" INDICATES FEW OR NO CLOUDS BELOW 12,000 FEET WITH NO
       SIGNIFICANT WEATHER AND/OR OBSTRUCTIONS TO VISIBILITY.

  * THESE STATIONS DO NOT REPORT WEATHER SUCH AS RAIN...SNOW OR FOG.

NEZ001>004-019>022-054>056-200200-
NEBRASKA PANHANDLE

CITY           SKY/WX    TMP DP  RH WIND       PRES   REMARKS
SCOTTSBLUFF    PTCLDY    27  20  75 NW7       30.00R WCI  19
ALLIANCE       PTCLDY    23  20  88 W6        29.98S WCI  16
CHADRON        CLEAR     25  19  78 W7        29.97S WCI  17
SIDNEY         CLEAR     29  20  69 W13       30.01R WCI  19
$$

NEZ057>060-069>072-079>082-200200-
SOUTHWEST NEBRASKA

CITY           SKY/WX    TMP DP  RH WIND       PRES   REMARKS
NORTH PLATTE   CLEAR     27  24  89 NW7       30.02R WCI  19
IMPERIAL       CLEAR     32  26  78 W7        30.02S WCI  26
MCCOOK         CLEAR     36  25  64 SW9       30.02F WCI  29
$$

NEZ005>010-023>029-035>040-094-200200-
NORTH CENTRAL NEBRASKA

CITY           SKY/WX    TMP DP  RH WIND       PRES   REMARKS
VALENTINE      PTCLDY    23  19  85 W8        29.98R WCI  14
AINSWORTH      CLEAR     22  21  96 S5        29.98S FOG     WCI  16
BROKEN BOW     CLEAR     29  26  89 S3        30.00S FOG
$$

NEZ041-046>049-061>064-073>077-083>087-200200-
SOUTH CENTRAL NEBRASKA

CITY           SKY/WX    TMP DP  RH WIND       PRES   REMARKS
GRAND ISLAND   CLOUDY    33  31  92 S7        30.08R FOG     WCI  27
AURORA         CLOUDY    33  32  96 S7        30.08R FOG     WCI  27
HASTINGS       CLOUDY    34  32  92 S8        30.06S FOG     WCI  27
KEARNEY *        N/A     25  23  93 S3        30.04S VSB 1/2
$$

NEZ011>018-030>034-042>045-200200-
NORTHEAST NEBRASKA

CITY           SKY/WX    TMP DP  RH WIND       PRES   REMARKS
NORFOLK        CLOUDY    33  29  85 S12       30.06F WCI  24
COLUMBUS *     CLOUDY    34  27  75 S8        30.11F WCI  27
TEKAMAH        CLOUDY    33  29  85 S9        30.15S WCI  25
$$

NEZ050>053-065>068-078-088>093-200200-
SOUTHEAST NEBRASKA

CITY           SKY/WX    TMP DP  RH WIND       PRES   REMARKS
LINCOLN        CLOUDY    34  29  82 S9        30.15S WCI  27
OMAHA EPPLEY   CLOUDY    32  29  88 S10       30.17S FOG     WCI  24
FALLS CITY     CLOUDY    31  27  85 S5        30.19S WCI  26
NEBRASKA CITY  CLOUDY    31  31 100 S8        30.17S FOG     WCI  23
$$

NEZ044-045-051>053-067-200200-
OMAHA AREA

CITY           SKY/WX    TMP DP  RH WIND       PRES   REMARKS
OMAHA EPPLEY   CLOUDY    32  29  88 S10       30.17S FOG     WCI  24
OFFUTT AFB     CLOUDY    32  28  86 SE8       30.16F WCI  25
WAHOO          CLOUDY    34  29  83 S7        30.13F WCI  28
$$



USA.gov is the U.S. government's official web portal to all federal, state and local government web resources and services.